Globalstar M056

operational
NORAD ID: 25945 Int'l Des: 1999-058 Owner: GLOBT Country: US Constellation: globalstar
LEOCIRCULAR

About Globalstar M056

Description loading...

Live Position

Loading 3D Globe...

Upcoming Passes

Altitude History

Altitude vs Time

uPlot chart will show altitude changes over time

Two-Line Element Set

1 25945U 99058C 26061.61333641 -.00000075 00000-0 14797-3 0 9992
2 25945 51.9941 223.3740 0000947 31.7332 47.9360 12.04785873193777
Epoch: Mar 2, 2026 • Age: 29 hours

Current Status

Altitude 1664.7 km
Velocity 7.05 km/s
Sub-Earth Point 48.10°N, 108.35°E
Launch Date Oct 18, 1999
Age 26.3 years
Type communications

Technical Details

Classification Payload
Mass 450.00 kg
Dry Mass 380.00 kg
Total Mass 450.00 kg
Length 1.50 m
Diameter 0.60 m
Span 12.00 m
Shape Box + 2 Pan
Manufacturer LOR
Bus Type LS-400
Phase Status In Orbit
Owner/State GLOBT/US

Large Constellations

Loading constellations...